Weather History for Oscoda, MI

Change the Weather History Date:

Wednesday, December 5, 2012

  Actual Average Record
Temperature  
Mean Temperature 24 °F -  
Max Temperature 32 °F 37 °F 64 °F (2001)
Min Temperature 17 °F 23 °F 6 °F (2002)
Degree Days  
Heating Degree Days 40    
Moisture  
Dew Point 17 °F    
Average Humidity 67    
Maximum Humidity 89    
Minimum Humidity 50    
Precipitation  
Precipitation 0.00 in - - ()
Sea Level Pressure  
Sea Level Pressure 30.31 in    
Wind  
Wind Speed 8 mph (NW)    
Max Wind Speed 16 mph    
Max Gust Speed 29 mph    
Visibility 10 miles    
Events      
Averages and records for this station are not official NWS values.
T = Trace of Precipitation, MM = Missing Value Source: NWS Daily Summary

Daily Weather History Graph

Daily Weather History Graph

Search for Another Location

Airport:

Trip Planner

Search our weather history database for the weather conditions in past years. The results will help you decide how hot, cold, wet, or windy it might be!

Date:

Astronomy

Dec. 05, 2012 Rise Set
Actual Time 7:54 AM EST 4:54 PM EST
Civil Twilight 7:21 AM EST 5:27 PM EST
Nautical Twilight 6:45 AM EST 6:03 PM EST
Astronomical Twilight 6:09 AM EST 6:38 PM EST
Moon 11:54 PM EST (12/5) 12:06 PM EST (12/5)
Length of Visible Light 10h 05m
Length of Day
8h 59m
Waning Gibbous, 60% of the Moon is Illuminated
Dec 5
Waning Gibbous
Dec 6
Last Quarter
Dec 13
New
Dec 20
First Quarter
Dec 28
Full

Hourly Weather History & Observations

Time (EST) Temp. Windchill Dew Point Humidity Pressure Visibility Wind Dir Wind Speed Gust Speed Precip Events Conditions
12:14 AM 32.0 °F 24.2 °F 19.4 °F 60% 30.12 in 10.0 mi WNW 9.2 mph 20.7 mph N/A   Overcast
12:34 AM 31.6 °F 23.7 °F 18.7 °F 59% 30.13 in 10.0 mi NNW 9.2 mph - N/A   Overcast
12:54 AM 31.1 °F 20.5 °F 17.6 °F 57% 30.13 in 10.0 mi NW 15.0 mph 19.6 mph N/A   Overcast
1:14 AM 30.2 °F 19.8 °F 15.8 °F 55% 30.15 in 10.0 mi WNW 13.8 mph 19.6 mph N/A   Mostly Cloudy
1:34 AM 30.2 °F 21.9 °F 15.8 °F 55% 30.15 in 10.0 mi WNW 9.2 mph - N/A   Overcast
1:54 AM 28.4 °F 21.2 °F 15.8 °F 59% 30.16 in 10.0 mi WNW 6.9 mph - N/A   Scattered Clouds
2:14 AM 27.5 °F 22.2 °F 16.3 °F 63% 30.17 in 10.0 mi West 4.6 mph - N/A   Clear
2:34 AM 27.7 °F 20.4 °F 16.3 °F 62% 30.18 in 10.0 mi WNW 6.9 mph - N/A   Clear
2:54 AM 27.5 °F 22.2 °F 16.5 °F 63% 30.18 in 10.0 mi West 4.6 mph - N/A   Clear
3:14 AM 26.1 °F 20.5 °F 16.3 °F 67% 30.19 in 10.0 mi West 4.6 mph - N/A   Scattered Clouds
3:33 AM 26.4 °F 19.8 °F 16.7 °F 67% 30.20 in 10.0 mi West 5.8 mph - N/A   Mostly Cloudy
3:54 AM 25.9 °F 18.2 °F 16.5 °F 68% 30.20 in 10.0 mi West 6.9 mph - N/A   Scattered Clouds
4:14 AM 25.5 °F 18.7 °F 16.5 °F 69% 30.20 in 10.0 mi West 5.8 mph - N/A   Clear
4:33 AM 26.2 °F 17.8 °F 17.1 °F 68% 30.21 in 10.0 mi West 8.1 mph - N/A   Scattered Clouds
4:54 AM 27.1 °F 19.7 °F 17.6 °F 67% 30.21 in 10.0 mi West 6.9 mph - N/A   Mostly Cloudy
5:14 AM 27.3 °F 19.1 °F 18.1 °F 68% 30.22 in 10.0 mi West 8.1 mph - N/A   Mostly Cloudy
5:33 AM 28.2 °F 21.0 °F 18.5 °F 67% 30.23 in 10.0 mi West 6.9 mph - N/A   Overcast
5:54 AM 27.1 °F 19.7 °F 18.1 °F 69% 30.23 in 10.0 mi WSW 6.9 mph - N/A   Mostly Cloudy
6:14 AM 27.0 °F 18.7 °F 19.6 °F 74% 30.24 in 10.0 mi West 8.1 mph - N/A   Scattered Clouds
6:33 AM 27.0 °F 17.3 °F 20.7 °F 77% 30.26 in 10.0 mi West 10.4 mph - N/A   Scattered Clouds
6:54 AM 27.5 °F 16.8 °F 21.2 °F 77% 30.26 in 10.0 mi West 12.7 mph - N/A   Scattered Clouds
7:14 AM 28.2 °F 17.7 °F 21.9 °F 77% 30.27 in 10.0 mi WNW 12.7 mph 18.4 mph N/A   Mostly Cloudy
7:33 AM 27.5 °F 18.6 °F 22.1 °F 80% 30.29 in 10.0 mi WNW 9.2 mph 16.1 mph N/A   Scattered Clouds
7:54 AM 27.0 °F 18.7 °F 21.7 °F 81% 30.30 in 10.0 mi WNW 8.1 mph - N/A   Clear
9:34 AM 30.7 °F 19.6 °F 17.4 °F 58% 30.35 in 10.0 mi NW 16.1 mph 21.9 mph N/A   Scattered Clouds
9:54 AM 30.2 °F 18.9 °F 16.3 °F 56% 30.36 in 10.0 mi NW 16.1 mph 26.5 mph N/A   Overcast
10:14 AM 29.8 °F 18.9 °F 16.2 °F 57% 30.36 in 10.0 mi NW 15.0 mph 23.0 mph N/A   Overcast
10:34 AM 30.0 °F 21.1 °F 16.3 °F 57% 30.37 in 10.0 mi NW 10.4 mph 28.8 mph N/A   Overcast
10:54 AM 30.6 °F 20.7 °F 16.7 °F 56% 30.37 in 10.0 mi NNW 12.7 mph 20.7 mph N/A   Overcast
11:14 AM 30.7 °F 20.4 °F 16.9 °F 56% 30.37 in 10.0 mi NNW 13.8 mph 21.9 mph N/A   Overcast
11:34 AM 31.1 °F 21.9 °F 17.4 °F 57% 30.38 in 10.0 mi NNW 11.5 mph 19.6 mph N/A   Overcast
11:54 AM 31.3 °F 23.3 °F 17.2 °F 56% 30.37 in 10.0 mi NNW 9.2 mph 21.9 mph N/A   Overcast
12:14 PM 31.8 °F 21.4 °F 18.5 °F 58% 30.36 in 10.0 mi North 15.0 mph 18.4 mph N/A   Overcast
12:34 PM 32.0 °F 22.5 °F 16.7 °F 53% 30.36 in 10.0 mi NNW 12.7 mph 16.1 mph N/A   Scattered Clouds
12:54 PM 32.0 °F 23.6 °F 16.2 °F 52% 30.37 in 10.0 mi North 10.4 mph 17.3 mph N/A   Clear
1:14 PM 32.2 °F 23.8 °F 16.3 °F 52% 30.37 in 10.0 mi NNW 10.4 mph - N/A   Clear
1:34 PM 32.5 °F 24.8 °F 16.3 °F 51% 30.38 in 10.0 mi NNW 9.2 mph - N/A   Clear
1:54 PM 32.5 °F 26.2 °F 15.8 °F 50% 30.38 in 10.0 mi WNW 6.9 mph - N/A   Scattered Clouds
2:14 PM 32.5 °F 27.1 °F 15.8 °F 50% 30.38 in 10.0 mi NNW 5.8 mph - N/A   Clear
2:34 PM 32.4 °F 29.1 °F 15.8 °F 51% 30.38 in 10.0 mi NW 3.5 mph - N/A   Clear
2:54 PM 32.7 °F 27.3 °F 16.2 °F 51% 30.38 in 10.0 mi North 5.8 mph - N/A   Clear
3:13 PM 32.2 °F 26.7 °F 16.3 °F 52% 30.37 in 10.0 mi NNE 5.8 mph - N/A   Clear
3:34 PM 32.0 °F 28.7 °F 15.8 °F 51% 30.38 in 10.0 mi NNW 3.5 mph - N/A   Clear
3:54 PM 31.6 °F 27.0 °F 15.8 °F 52% 30.38 in 10.0 mi NE 4.6 mph - N/A   Clear
4:14 PM 31.1 °F 27.7 °F 16.3 °F 54% 30.39 in 10.0 mi North 3.5 mph - N/A   Clear
4:34 PM 29.8 °F 26.3 °F 15.6 °F 56% 30.39 in 10.0 mi NE 3.5 mph - N/A   Clear
4:54 PM 29.7 °F 26.1 °F 15.8 °F 56% 30.37 in 10.0 mi NE 3.5 mph - N/A   Clear
5:14 PM 28.2 °F 24.4 °F 16.7 °F 62% 30.37 in 10.0 mi East 3.5 mph - N/A   Clear
5:34 PM 27.5 °F 22.2 °F 19.2 °F 71% 30.37 in 10.0 mi ENE 4.6 mph - N/A   Clear
5:54 PM 28.2 °F 24.4 °F 19.4 °F 70% 30.36 in 10.0 mi ENE 3.5 mph - N/A   Clear
6:14 PM 28.4 °F - 19.4 °F 69% 30.37 in 10.0 mi Calm Calm - N/A   Clear
6:34 PM 26.4 °F - 19.0 °F 74% 30.37 in 10.0 mi Calm Calm - N/A   Clear
6:54 PM 24.6 °F - 18.1 °F 76% 30.37 in 10.0 mi Calm Calm - N/A   Clear
7:14 PM 21.9 °F - 16.7 °F 80% 30.37 in 10.0 mi Calm Calm - N/A   Clear
7:34 PM 21.2 °F - 16.5 °F 82% 30.37 in 10.0 mi Calm Calm - N/A   Clear
7:54 PM 20.3 °F - 15.8 °F 83% 30.36 in 10.0 mi Calm Calm - N/A   Clear
8:14 PM 20.1 °F - 15.8 °F 83% 30.36 in 10.0 mi Calm Calm - N/A   Clear
8:34 PM 18.5 °F - 15.1 °F 86% 30.36 in 10.0 mi Calm Calm - N/A   Clear
8:54 PM 19.0 °F - 15.4 °F 86% 30.36 in 10.0 mi Calm Calm - N/A   Clear
9:14 PM 17.8 °F 12.5 °F 14.9 °F 88% 30.37 in 10.0 mi West 3.5 mph - N/A   Clear
9:34 PM 18.9 °F - 15.4 °F 87% 30.37 in 10.0 mi Calm Calm - N/A   Scattered Clouds
9:54 PM 18.9 °F - 15.3 °F 86% 30.37 in 10.0 mi Calm Calm - N/A   Mostly Cloudy
10:14 PM 19.8 °F 14.7 °F 16.2 °F 86% 30.37 in 10.0 mi WSW 3.5 mph - N/A   Overcast
10:34 PM 20.8 °F - 17.6 °F 87% 30.37 in 10.0 mi Calm Calm - N/A   Overcast
10:54 PM 22.5 °F 17.8 °F 19.6 °F 89% 30.36 in 10.0 mi ESE 3.5 mph - N/A   Overcast
11:14 PM 23.7 °F - 21.0 °F 89% 30.36 in 10.0 mi Calm Calm - N/A   Overcast
11:34 PM 25.3 °F 21.1 °F 22.6 °F 89% 30.34 in 10.0 mi SSW 3.5 mph - N/A   Overcast
11:54 PM 27.1 °F 20.7 °F 22.1 °F 81% 30.33 in 10.0 mi SSW 5.8 mph - N/A   Overcast